THORAD AGENA D DEB, 4614

Orbit data source: Space-Track

THORAD AGENA D DEB, 4614 is space debris in SSO originally from a launch on Wed, 08 Apr 1970 UTC launched from the Air Force Western Test Range (AFWTR). Debris objects in space refer to the collection of defunct objects orbiting the Earth. Examples of debris include non-operational satellites, rocket bodies, and fragments generated from explosions, collisions, or faulty payload assembly.

Loading next visibility...
Identifier
4614, 1970-025S
Orbit
SSO
Country
Flag of USUS
Related business
Manufacturer
Unknown
Mission
Spacecraft
Bus & Motor
Unknown
Mass
Unknown
Launch date (UTC)
1970-04-08 (56 years ago)
Launch vehicle
Unknown
Launch site
Air Force Western Test Range (AFWTR)
Object type
Payload
Rocket body
Debris
Shape & HBR
Unknown shape, 0.5 m
Radar Cross Section
Medium (>0.1 m² and <1 m²)

Expand to show TLE details & history
Last TLE update: 5 hours ago

TLE from 5 hours ago
0 THORAD AGENA D DEB
1  4614U 70025S   26095.52676867  .00001019  00000-0  81332-3 0  9999
2  4614 100.1104 112.6766 0077335 299.7747  59.5733 13.92389525816445
Epoch: 2026-04-05T12:38Z
TLE epoch observation values (Epoch: 2026-04-05T12:38:32.813Z)
Latitude
-0.00004°
Longitude
89.20897°
Altitude
894.835 km
Speed
7.419 km/s
True Right ascension
07h 30m 42s
True Declination
0° 00' 00"
Sunlit
Object was in daylight at epoch
Visualization orbit readout
Latitude
Unknown
Longitude
Unknown
Altitude
Unknown
Speed
Unknown
Apparent Right ascension
Unknown
Apparent Declination
Unknown
Sunlit
N/A
Visualization observer readout
Local Sidereal Time
23:15:20
Azimuth
Unknown
Elevation
Unknown
Doppler factor
Unknown
Orbital elements
Apogee altitude
973.957 km
Perigee altitude
861.114 km
Semi-major axis
7,295.673 km
Eccentricity
0.00773
Inclination
100.1104°
RAAN
112.6766°
Arg. of periapsis
299.7747°
True anomaly
60.34118°
Mean anomaly
59.5733°
Eccentric anomaly
59.95687°
Mean motion
3.48293 °/min
Orbital period
103.36 mins
BSTAR
0.00081332
Loading maneuver chart data...
Computing Atmospheric mass density...

Documentation

Showing up to 5 results
|